GFSFLT2_700_spd_156.txt.gz
Wind_Speed
11 11 13 14 15 16 18 20 22 22 22 21 21 20 20 20 19 19 19 21 22 23 25 26 27 28 28 28 26 25 24 24
15 14 14 15 17 18 19 21 21 21 21 20 20 21 21 21 22 22 22 22 22 23 25 27 28 29 30 31 30 30 28 28
12 13 14 16 17 19 20 20 20 20 20 21 22 23 24 25 25 26 26 26 26 26 26 27 27 30 31 32 33 33 32 32
12 14 17 19 20 20 20 19 18 19 21 23 24 26 27 28 29 30 31 31 31 31 32 32 31 30 31 33 34 34 36 36
15 18 19 20 20 19 18 19 20 22 24 26 27 29 30 31 32 34 35 35 36 37 38 38 37 37 36 35 35 37 38 36
17 18 17 16 17 18 19 22 24 25 26 28 29 30 31 33 34 35 37 38 40 41 42 43 43 44 44 42 41 41 39 40
16 14 14 15 17 19 21 22 23 25 27 28 30 31 32 33 35 36 37 39 40 41 43 45 47 49 50 50 49 48 47 45
14 14 15 17 18 18 20 22 25 27 30 31 33 34 34 35 36 38 40 42 43 45 46 48 49 50 51 53 55 55 54 53
14 14 15 15 15 17 20 23 27 30 32 34 35 36 37 38 39 41 43 44 46 48 50 53 54 55 56 54 55 56 58 59
14 14 13 13 16 18 22 25 28 30 33 35 36 38 40 42 44 45 47 48 50 52 54 55 56 57 58 59 59 59 58 58
14 13 13 13 15 19 22 26 31 34 36 38 39 41 43 45 46 48 50 51 51 53 54 55 56 57 59 59 59 58 58 58
15 13 12 13 17 21 25 30 34 36 36 39 41 43 44 45 47 48 50 49 50 50 50 51 54 57 59 59 59 58 56 54
14 13 13 16 19 23 28 33 35 36 37 39 40 41 43 44 45 47 50 51 49 48 47 48 47 49 53 55 55 57 59 57
15 14 14 16 20 24 30 33 34 35 37 39 40 41 42 41 41 44 49 47 43 39 39 39 37 38 39 39 42 40 47 49
14 13 14 16 21 26 31 33 34 34 35 36 36 36 35 34 37 40 48 45 38 36 35 36 34 32 34 36 36 34 32 28
12 12 15 19 24 28 32 33 31 30 31 32 31 30 28 31 34 39 45 44 35 33 32 31 30 29 28 30 31 32 30 21
10 13 18 21 24 27 29 29 28 28 28 28 24 24 27 31 35 34 40 47 39 33 31 30 29 29 27 24 25 24 26 24
10 17 21 24 24 27 28 27 26 26 27 23 23 25 28 30 32 34 37 42 39 35 30 28 27 27 26 24 24 23 19 21
14 20 22 21 25 27 27 26 24 24 24 23 24 25 27 29 31 34 35 34 38 38 34 29 27 25 24 22 21 20 19 18
18 21 19 23 26 27 27 25 23 24 24 23 24 25 27 28 29 30 32 32 31 34 35 34 30 25 22 21 20 19 19 18

GFSFLT2_700_spd_159.txt.gz
Wind_Speed
15 13 12 12 13 14 17 18 20 21 22 22 21 19 19 19 19 19 20 20 21 21 22 23 25 26 27 28 28 27 27 27
16 15 13 14 15 17 19 20 22 22 22 21 20 20 21 22 23 24 24 25 25 26 25 26 25 26 27 29 30 30 32 30
18 16 15 16 17 19 20 21 21 21 20 20 22 24 25 27 27 28 28 29 29 29 30 30 30 30 29 29 30 32 34 34
19 17 16 17 18 19 20 20 18 18 19 21 23 25 27 28 29 30 31 32 33 33 34 35 35 35 35 35 34 33 34 36
17 16 17 18 18 19 16 15 16 18 20 22 24 26 27 29 30 32 33 34 35 36 38 39 39 39 40 41 41 40 38 37
18 18 18 18 17 15 15 15 17 18 19 21 23 25 27 29 31 32 34 35 36 38 39 40 41 43 43 43 45 46 46 45
19 19 17 15 14 14 14 14 15 17 19 21 24 26 28 30 31 32 33 35 36 37 39 41 42 44 45 47 47 48 49 52
20 17 15 13 13 13 12 12 13 16 19 22 25 28 31 32 33 34 36 38 39 41 42 44 46 48 48 50 51 52 52 53
18 15 14 14 12 10 10 11 14 17 22 25 28 31 33 33 35 36 38 40 40 42 45 48 49 49 50 50 52 54 57 57
17 15 14 13 11 10 10 13 16 20 26 30 32 33 33 35 37 38 39 40 43 46 47 47 48 50 51 50 50 52 53 56
17 15 14 12 11 11 13 16 20 25 31 34 34 34 34 35 37 39 40 43 45 46 47 48 48 47 48 49 52 54 56 57
18 16 15 13 13 13 15 18 24 29 33 35 34 34 34 36 38 39 39 40 44 45 44 42 42 43 44 44 45 47 49 51
19 17 16 15 14 14 17 22 26 30 32 33 34 34 35 36 36 36 35 37 42 44 43 40 36 39 40 40 39 38 37 37
21 19 18 15 14 15 19 22 26 29 32 33 34 35 35 35 34 32 32 33 39 44 39 36 33 36 37 37 37 31 28 32
22 21 18 14 13 15 18 21 26 30 33 33 34 33 32 30 27 29 32 36 37 44 40 35 32 31 34 37 39 36 30 19
24 21 16 13 12 15 18 23 27 30 31 31 30 29 27 26 27 31 33 34 34 38 40 38 34 31 30 31 34 35 33 14
25 20 14 11 12 15 19 23 27 29 29 28 27 26 25 25 28 30 32 32 34 36 39 43 37 33 30 27 27 27 27 23
25 17 11 9 12 16 21 27 27 26 26 25 24 24 24 26 28 29 29 30 31 33 36 37 41 34 29 26 26 25 23 21
24 14 8 10 12 19 25 26 24 24 23 22 23 23 24 25 25 25 26 28 29 30 33 34 36 33 27 25 24 22 21 18
21 10 9 10 16 23 24 23 22 23 22 22 22 23 22 23 23 24 24 25 27 28 29 29 30 33 32 23 22 22 19 18

GFSFLT2_700_spd_162.txt.gz
Wind_Speed
17 18 17 16 14 13 13 15 17 19 21 21 21 20 18 18 19 20 20 21 21 21 21 22 22 23 23 24 26 28 28 28
18 19 18 17 14 14 15 18 20 21 22 21 19 18 19 20 21 23 24 24 25 25 26 26 27 26 26 26 25 27 30 28
20 19 18 15 15 15 18 21 22 23 21 19 19 20 22 24 25 26 27 28 29 30 30 31 31 31 32 31 30 30 30 31
21 20 17 16 17 19 21 22 22 22 19 19 20 21 22 23 24 26 27 28 30 31 32 33 33 34 35 34 36 36 35 35
23 21 20 20 20 21 21 22 20 19 18 18 17 18 20 22 25 27 28 30 31 32 34 35 37 38 38 39 39 39 40 41
23 23 22 21 21 22 21 18 18 17 14 14 15 17 19 23 27 30 31 32 33 35 36 37 38 40 41 42 42 43 44 45
24 23 22 22 23 21 18 18 16 12 11 11 14 17 20 24 27 29 30 32 34 36 37 38 39 41 42 44 45 47 47 48
24 24 24 23 21 20 18 15 12 10 10 12 16 21 24 27 29 30 32 33 35 36 37 38 40 43 44 46 48 48 50 52
25 24 22 21 20 18 15 13 11 11 13 17 21 25 28 30 31 32 33 34 36 39 41 42 44 45 46 47 47 48 49 50
24 21 21 21 20 17 15 13 12 13 16 20 24 27 30 32 33 34 35 36 37 38 40 41 42 44 44 44 44 45 47 47
22 21 21 20 19 18 16 15 14 16 18 21 25 29 31 32 33 34 35 36 36 36 36 40 41 41 41 42 42 43 45 47
23 21 21 22 20 19 17 16 16 17 20 23 27 30 31 32 33 34 34 33 32 33 35 38 42 43 41 40 39 40 41 42
26 25 24 23 21 20 18 16 15 16 21 24 29 31 32 31 32 32 30 29 30 33 36 37 38 41 41 40 37 36 35 35
29 27 26 24 22 20 18 15 14 17 22 26 29 31 31 31 31 31 29 28 29 33 35 36 37 41 40 37 37 32 31 30
30 28 27 25 22 18 16 14 16 19 23 26 28 29 30 31 31 29 27 28 30 32 34 34 34 39 39 37 38 34 32 23
31 29 28 25 21 17 14 13 16 19 24 25 25 27 29 29 28 28 27 29 30 31 33 34 36 37 37 34 32 33 33 23
32 30 29 25 20 17 12 14 17 21 22 23 25 26 27 27 27 27 26 27 28 29 30 31 31 33 39 38 31 30 30 29
33 32 30 24 20 14 12 14 18 20 21 22 23 25 27 27 26 24 24 25 26 26 27 29 29 34 39 39 30 26 28 28
36 34 28 22 17 14 13 15 18 20 21 21 22 24 25 25 24 22 22 22 22 22 24 26 27 29 35 35 23 24 28 24
35 33 27 21 22 12 12 16 19 20 19 20 22 23 24 23 21 20 20 20 20 21 22 23 24 24 29 28 27 28 25 26

GFSFLT2_700_spd_165.txt.gz
Wind_Speed
22 21 22 21 18 16 14 14 12 14 16 18 19 20 18 16 17 18 19 20 20 21 22 23 24 24 24 24 24 24 24 25
20 20 21 21 19 17 16 14 14 17 18 20 20 19 18 19 19 20 20 21 21 21 22 23 24 25 25 26 26 27 29 28
22 22 22 21 20 18 16 15 17 19 21 21 19 19 20 19 19 19 21 22 24 25 25 26 26 27 27 27 28 29 31 30
24 21 20 21 19 18 17 18 20 21 21 19 19 19 17 17 18 21 24 27 28 29 30 31 31 31 32 31 31 33 33 33
25 23 22 21 19 19 20 22 23 22 20 19 18 15 14 15 18 21 24 27 29 31 33 34 35 36 37 37 37 38 38 39
27 25 23 23 21 22 23 24 24 21 19 17 14 12 13 16 20 23 26 28 29 31 33 35 37 38 40 41 41 42 43 43
29 27 25 24 24 24 25 25 22 21 19 15 12 13 15 19 23 25 27 28 29 30 32 34 35 37 39 41 42 43 44 46
29 29 27 26 26 26 25 22 21 21 18 15 14 15 18 20 24 27 29 31 32 33 35 36 36 37 38 39 41 42 44 45
31 30 28 27 28 27 23 22 22 20 18 16 16 17 20 23 27 29 31 32 33 35 37 38 38 39 40 41 42 43 44 44
34 33 30 29 29 25 24 23 23 21 20 18 18 20 23 26 27 29 31 32 33 36 37 37 38 39 40 40 40 40 42 43
35 33 31 31 29 26 25 25 24 23 21 19 19 22 25 26 29 30 31 32 33 34 34 35 35 36 37 39 40 41 42 42
36 35 32 31 29 27 26 26 25 23 20 18 20 22 24 27 29 30 30 31 32 32 31 32 36 39 39 39 40 42 42 41
37 34 33 31 30 28 27 26 24 22 19 18 20 22 25 27 28 28 29 30 31 31 31 32 35 39 41 40 39 40 40 35
37 35 34 32 30 29 27 26 24 21 18 17 19 23 26 26 27 28 28 30 30 30 30 31 35 39 42 42 42 39 39 31
39 36 35 33 31 28 28 27 23 20 16 16 20 24 25 25 26 26 27 28 28 28 29 31 33 35 36 39 43 42 42 26
41 38 36 34 31 30 28 26 22 18 15 18 21 23 23 24 25 25 26 27 26 27 28 29 30 31 32 34 40 41 40 35
42 40 37 35 33 31 27 24 20 15 15 18 21 22 22 23 23 24 25 25 25 25 26 27 28 29 30 33 36 35 35 38
44 40 38 36 33 30 26 21 15 14 14 18 21 21 21 21 23 24 24 23 23 24 25 26 27 27 28 30 34 38 38 35
45 42 39 36 33 28 24 18 16 14 14 19 21 21 21 21 22 23 23 22 22 23 24 25 25 25 26 29 31 35 37 33
45 43 37 36 32 29 23 18 16 12 17 21 21 21 21 21 22 23 22 22 22 22 23 23 23 23 24 26 30 32 36 34

GFSFLT2_700_spd_168.txt.gz
Wind_Speed
18 20 20 19 19 18 17 15 13 12 13 13 14 16 16 14 14 15 16 16 17 17 18 19 20 21 21 21 20 21 21 21
18 21 21 21 20 19 19 17 15 14 14 14 16 17 15 15 15 15 14 15 16 17 18 19 21 22 22 23 24 24 26 26
21 21 20 19 20 21 19 17 16 15 15 16 17 16 14 13 12 11 12 14 16 18 19 21 22 24 25 24 25 27 26 26
23 22 20 21 23 22 20 18 17 16 17 18 18 16 16 12 10 10 14 17 18 21 22 24 25 27 28 28 28 28 29 29
25 24 23 24 23 21 20 19 18 17 18 19 17 17 14 12 11 13 16 19 22 24 25 27 28 30 31 32 32 33 33 33
28 27 27 25 22 23 22 20 19 20 21 19 17 15 13 13 15 18 21 24 26 28 29 29 30 31 32 32 33 33 35 36
30 30 28 25 26 25 23 21 21 22 21 19 17 15 14 15 18 20 23 27 29 29 30 30 31 31 32 33 33 34 34 35
32 31 31 29 29 27 26 23 24 23 20 20 18 16 16 18 20 23 26 28 29 30 30 31 31 31 32 34 35 36 37 37
31 33 34 32 29 29 27 26 25 23 22 20 19 17 18 20 22 25 28 29 30 30 31 32 33 33 33 34 35 37 37 37
33 32 33 32 32 30 28 26 26 24 22 20 20 19 20 22 25 27 28 30 30 31 32 32 33 33 34 34 35 35 36 37
36 35 34 35 34 31 28 28 26 25 22 21 20 20 22 24 26 28 28 28 29 30 31 32 33 33 33 33 34 36 36 36
36 37 36 36 35 33 31 29 27 25 23 23 21 21 23 26 27 27 28 28 29 29 29 32 33 33 33 32 33 35 35 35
38 39 39 38 36 34 32 30 28 26 25 24 22 23 25 26 27 27 28 28 28 28 28 30 33 33 34 31 30 34 34 36
40 40 41 39 37 36 34 31 29 27 26 25 23 23 25 26 27 27 27 27 26 27 27 27 30 33 34 35 37 32 32 34
41 40 41 40 39 38 35 31 30 28 27 24 23 23 24 24 25 26 25 25 26 26 26 25 27 29 32 34 36 36 36 34
41 41 42 42 41 37 35 33 31 29 26 23 22 21 21 23 25 24 24 24 24 24 24 24 25 27 29 31 31 33 36 39
44 43 44 44 40 37 37 36 31 27 24 23 19 18 21 23 23 23 23 22 23 23 23 23 24 26 28 29 30 30 33 37
46 46 45 43 41 38 38 35 29 26 24 20 16 15 20 25 23 22 22 21 22 22 21 22 23 25 27 28 29 31 34 37
44 45 46 43 42 38 38 33 28 25 23 16 12 15 22 23 22 21 20 21 20 21 20 21 23 25 26 27 28 30 32 36
44 40 42 44 43 39 36 32 29 26 18 13 10 16 22 22 21 20 19 19 19 19 19 21 23 24 25 26 26 28 31 34

GFSFLT2_700_spd_171.txt.gz
Wind_Speed
20 16 17 19 19 18 17 15 14 13 12 11 10 11 12 12 11 11 12 12 12 13 13 14 15 16 17 17 18 19 17 17
20 17 19 20 19 19 18 17 16 15 13 12 12 12 11 11 11 11 10 9 9 11 13 14 16 16 18 18 20 21 20 20
22 20 20 21 20 20 19 18 17 17 15 14 14 13 12 11 10 9 8 8 9 11 13 15 17 18 19 20 20 22 23 23
24 23 21 21 21 20 20 19 19 18 16 15 14 13 11 11 9 8 8 10 13 15 17 19 20 21 22 24 24 24 24 24
25 24 24 24 22 20 21 22 21 19 18 16 15 14 12 11 10 9 11 13 15 17 20 22 24 24 25 26 26 26 26 26
27 26 27 26 24 23 23 22 22 21 18 17 15 15 13 13 11 12 13 15 18 21 24 25 24 24 25 25 25 24 23 23
29 28 29 27 28 26 23 23 23 22 20 18 18 17 15 14 13 14 16 19 23 25 27 26 26 28 27 26 26 25 26 25
31 30 30 32 31 27 24 24 24 23 20 19 20 18 17 15 15 17 19 22 25 26 27 26 27 28 28 29 29 29 29 30
31 33 32 31 31 28 26 27 25 23 21 21 20 20 18 16 18 19 21 24 26 26 27 27 28 27 28 29 30 31 31 32
33 34 34 34 32 30 29 28 27 24 24 23 21 20 19 19 21 21 22 25 26 26 26 27 27 26 26 28 29 30 31 32
35 35 35 34 33 31 31 29 27 26 25 23 22 21 21 21 23 23 24 26 27 27 28 27 26 26 25 27 27 27 28 29
33 34 34 34 34 32 32 32 30 27 26 24 23 22 22 23 24 24 25 27 28 28 29 29 27 25 24 26 26 27 28 30
32 33 34 35 37 35 35 33 29 28 27 25 24 23 23 24 24 25 26 27 28 29 28 28 27 25 23 21 24 25 27 28
35 35 36 37 36 35 33 33 31 29 28 26 25 24 24 25 25 25 26 28 28 27 27 27 27 26 26 25 22 23 24 26
35 37 37 37 37 37 37 36 34 31 30 27 26 25 25 24 26 25 26 28 26 26 26 24 25 26 26 26 29 28 26 24
39 36 40 39 40 39 37 33 28 29 30 28 27 25 24 24 24 24 26 27 25 26 24 23 24 24 25 25 26 28 30 30
45 39 33 41 43 41 36 33 32 31 31 30 27 25 24 20 19 25 26 25 24 24 22 22 22 22 22 23 24 26 28 31
47 42 34 38 44 41 38 37 32 31 31 29 26 25 22 16 21 23 23 24 24 22 22 20 20 20 21 23 24 25 27 29
50 46 39 36 40 42 41 36 31 31 31 28 26 22 17 16 21 21 23 23 22 21 21 19 18 18 19 21 23 25 26 28
48 46 39 34 35 42 42 35 31 31 31 28 23 19 15 19 19 22 23 21 20 19 19 18 16 17 18 20 22 23 25 26

GFSFLT2_700_spd_177.txt.gz
Wind_Speed
18 17 14 15 17 21 24 23 21 20 19 19 18 16 14 13 13 13 13 11 9 8 6 5 6 8 10 12 13 13 14 15
19 21 18 16 17 20 24 24 23 22 20 19 19 17 15 14 14 14 13 12 9 7 5 6 9 11 13 15 15 15 16 16
19 22 23 21 20 21 24 25 24 23 21 20 20 18 16 14 14 14 14 12 10 7 9 10 11 12 14 15 16 17 18 19
21 24 25 27 24 22 23 24 24 23 22 21 21 19 17 15 15 15 14 12 11 10 11 12 13 15 16 17 18 19 21 22
20 22 25 26 25 24 25 25 24 23 23 22 22 20 18 16 15 15 14 13 12 12 12 14 16 17 18 19 20 22 23 24
21 23 25 25 27 27 28 26 25 25 24 23 23 20 18 17 16 15 15 15 14 13 13 15 17 18 19 20 21 22 23 23
25 23 24 26 27 28 28 28 28 25 25 23 23 21 19 18 17 16 16 16 14 13 13 15 17 18 19 20 20 21 22 22
25 24 23 25 28 29 30 30 29 25 25 25 24 22 21 19 18 17 17 17 15 13 14 16 18 19 20 21 22 23 23 23
27 25 25 24 27 31 33 31 29 26 28 27 26 23 22 20 18 19 19 18 16 15 15 17 19 20 21 23 23 23 24 24
31 29 29 29 31 34 34 34 30 31 31 29 27 25 23 21 19 20 21 19 17 16 16 17 19 22 24 25 25 25 25 24
32 32 32 28 29 33 37 35 32 35 33 32 29 27 25 22 21 22 22 20 18 16 16 18 20 23 25 26 26 26 25 25
35 36 35 30 27 32 38 39 37 38 37 34 31 29 26 23 22 23 23 22 19 16 16 18 21 24 25 26 25 25 25 25
39 40 39 33 28 28 36 40 39 41 39 36 34 30 27 26 24 25 24 23 20 17 16 17 22 24 25 25 24 24 24 25
38 39 41 38 31 24 30 38 40 41 40 37 34 31 28 28 26 26 25 23 21 18 17 18 22 24 25 24 23 22 23 24
36 34 38 40 35 29 25 33 37 40 41 39 36 33 31 29 28 28 26 23 20 18 18 20 22 22 22 22 23 21 22 23
38 35 37 40 39 33 28 27 32 34 39 39 36 36 31 29 30 29 26 23 20 18 19 20 21 21 20 21 21 20 20 22
38 40 41 42 40 36 32 29 32 33 39 42 39 37 31 32 29 29 25 23 20 17 18 18 23 22 22 21 20 19 19 18
39 40 43 45 47 34 34 32 32 33 37 41 40 37 33 34 28 27 25 24 20 15 17 21 25 23 22 21 19 18 17 16
43 43 43 45 51 40 37 39 38 33 33 38 40 35 32 33 27 26 25 24 18 14 21 25 27 24 21 20 18 17 16 17
38 36 39 49 52 50 33 31 35 29 33 38 39 35 33 35 28 25 25 22 13 17 23 24 27 22 20 18 17 16 16 17

GFSFLT2_700_spd_180.txt.gz
Wind_Speed
11 15 17 18 20 23 24 22 22 21 20 19 18 18 17 15 13 13 13 13 12 11 9 7 5 6 7 9 10 11 12 12
13 14 19 19 20 21 24 24 23 23 22 21 19 19 18 16 14 14 14 13 13 10 8 7 8 10 11 11 12 12 12 13
16 14 17 20 22 21 23 24 25 25 23 22 21 21 19 17 16 14 14 14 13 12 10 9 9 10 13 14 14 14 14 14
16 15 18 21 25 25 25 24 25 25 24 24 22 22 20 18 17 16 15 15 13 13 12 10 10 10 12 14 15 15 15 16
19 18 16 17 22 25 28 26 27 27 26 26 23 22 21 20 18 17 16 16 15 14 13 12 11 12 12 13 15 17 18 18
24 21 19 18 20 22 27 29 28 29 27 26 24 23 23 22 20 17 17 17 17 16 14 12 13 13 14 15 16 18 18 19
27 25 25 21 21 24 25 29 30 31 30 28 26 25 25 23 21 18 18 18 18 18 16 14 13 14 15 16 18 19 20 20
27 28 27 24 21 24 26 29 32 33 32 28 28 27 26 24 22 20 19 19 19 18 17 15 14 14 15 17 18 20 20 21
27 27 28 26 24 23 23 29 33 35 32 30 31 28 27 25 23 21 20 20 20 20 18 16 15 15 16 17 19 20 21 21
30 30 30 30 27 24 24 29 35 37 34 34 32 30 29 27 25 22 21 21 22 21 19 17 16 15 15 18 19 20 21 22
31 31 32 33 31 28 25 29 34 37 35 36 35 33 31 29 27 24 22 22 23 23 21 18 17 16 15 18 20 21 22 22
32 33 32 33 34 33 30 30 33 38 39 38 38 36 34 31 28 26 23 24 25 24 22 20 18 16 16 18 20 22 23 23
34 34 36 36 34 37 36 28 28 35 41 41 41 39 36 33 29 27 24 25 26 25 23 20 18 17 17 19 21 23 24 24
36 34 36 39 37 40 39 32 27 33 40 42 43 42 38 33 32 29 23 26 27 25 25 22 19 17 17 19 22 23 24 23
39 38 36 38 39 40 41 38 33 32 37 41 43 44 39 37 34 31 26 30 29 27 26 23 19 17 16 19 21 23 24 23
38 37 40 40 40 39 39 40 34 23 27 34 39 44 41 37 37 33 32 29 29 28 26 23 19 17 16 17 21 24 24 23
43 42 41 43 45 42 37 44 39 28 24 30 37 43 43 40 40 31 33 29 30 28 26 22 18 15 15 20 23 24 22 20
49 46 43 44 48 44 42 46 41 31 29 30 34 41 42 40 38 34 37 30 32 27 27 20 16 17 16 20 22 21 19 18
43 48 49 44 41 43 43 44 41 31 29 34 32 36 42 40 37 33 33 29 31 28 24 19 15 14 16 20 21 19 18 16
40 43 42 39 42 45 43 43 43 41 34 42 36 34 41 37 34 34 31 28 32 28 21 16 12 18 24 25 19 17 16 16